Weather History for Durango, CO

Change the Weather History Date:

Saturday, May 12, 2012

  Actual Average Record
Temperature  
Mean Temperature 55 °F 52 °F  
Max Temperature 70 °F 69 °F 86 °F (1984)
Min Temperature 40 °F 35 °F 24 °F (1983)
Degree Days  
Heating Degree Days 10 13  
Month to date heating degree days 151 177  
Since 1 July heating degree days 6312 6813  
Cooling Degree Days 0 0  
Month to date cooling degree days 0 0  
Year to date cooling degree days 0 0  
Growing Degree Days 4 (Base 50)    
Moisture  
Dew Point 38 °F    
Average Humidity 58    
Maximum Humidity 93    
Minimum Humidity 22    
Precipitation  
Precipitation 0.02 in 0.03 in 0.15 in (1977)
Month to date precipitation 0.11 0.46  
Year to date precipitation 2.68 5.09  
Sea Level Pressure  
Sea Level Pressure 30.13 in    
Wind  
Wind Speed 6 mph (ENE)    
Max Wind Speed 36 mph    
Max Gust Speed 46 mph    
Visibility 10 miles    
Events Rain , Thunderstorm    
T = Trace of Precipitation, MM = Missing Value Source: NWS Daily Summary

Daily Weather History Graph

Daily Weather History Graph

Search for Another Location

Airport:

Trip Planner

Search our weather history database for the weather conditions in past years. The results will help you decide how hot, cold, wet, or windy it might be!

Date:

Astronomy

May. 12, 2012 Rise Set
Actual Time 6:04 AM MDT 8:10 PM MDT
Civil Twilight 5:35 AM MDT 8:39 PM MDT
Nautical Twilight 5:00 AM MDT 9:14 PM MDT
Astronomical Twilight 4:22 AM MDT 9:53 PM MDT
Moon 1:28 AM MDT (5/12) 12:43 PM MDT (5/12)
Length of Visible Light 15h 03m
Length of Day
14h 05m
Waning Gibbous, 52% of the Moon is Illuminated
May 12
Waning Gibbous
May 12
Last Quarter
May 20
New
May 28
First Quarter
Jun 4
Full

Hourly Weather History & Observations

Time (MDT) Temp. Windchill Dew Point Humidity Pressure Visibility Wind Dir Wind Speed Gust Speed Precip Events Conditions
12:00 AM 50.0 °F - 42.8 °F 76% 30.25 in 2.5 mi NNE 13.8 mph - 0.04 in Rain Heavy Rain
12:12 AM 48.2 °F - 44.6 °F 87% 30.25 in 6.0 mi ENE 10.4 mph - 0.06 in Rain Light Rain
12:53 AM 46.9 °F - 44.1 °F 90% 30.04 in 10.0 mi East 6.9 mph - 0.07 in   Mostly Cloudy
1:53 AM 46.9 °F - 45.0 °F 93% 30.03 in 10.0 mi East 6.9 mph - 0.00 in   Mostly Cloudy
2:53 AM 46.9 °F - 45.0 °F 93% 30.07 in 10.0 mi North 10.4 mph - N/A   Partly Cloudy
3:53 AM 46.0 °F - 44.1 °F 93% 30.07 in 10.0 mi Calm Calm - N/A   Clear
4:53 AM 44.1 °F 42.5 °F 42.1 °F 93% 30.09 in 10.0 mi East 3.5 mph - N/A   Clear
5:53 AM 41.0 °F 37.1 °F 39.9 °F 96% 30.11 in 10.0 mi NNE 5.8 mph - N/A   Clear
6:53 AM 42.1 °F 40.2 °F 39.9 °F 92% 30.14 in 10.0 mi NNE 3.5 mph - N/A   Clear
7:53 AM 46.9 °F - 43.0 °F 86% 30.14 in 10.0 mi Calm Calm - N/A   Clear
8:53 AM 54.0 °F - 46.0 °F 75% 30.13 in 10.0 mi Variable 4.6 mph - N/A   Clear
9:53 AM 57.9 °F - 43.0 °F 58% 30.13 in 10.0 mi East 8.1 mph - N/A   Clear
10:53 AM 60.1 °F - 43.0 °F 53% 30.12 in 10.0 mi SE 6.9 mph - N/A   Clear
11:53 AM 63.0 °F - 39.9 °F 43% 30.12 in 10.0 mi Variable 4.6 mph - N/A   Partly Cloudy
12:53 PM 66.9 °F - 39.9 °F 37% 30.08 in 10.0 mi SE 10.4 mph 18.4 mph N/A   Clear
1:53 PM 68.0 °F - 28.9 °F 23% 30.05 in 10.0 mi Variable 6.9 mph - N/A   Mostly Cloudy
2:04 PM 66.2 °F - 33.8 °F 30% 30.23 in 10.0 mi North 5.8 mph - N/A Thunderstorm Mostly Cloudy
2:22 PM 60.8 °F - 28.4 °F 29% 30.25 in 10.0 mi NNW 32.2 mph 46.0 mph N/A Thunderstorm Thunderstorm
2:53 PM 55.0 °F - 37.0 °F 51% 30.17 in 10.0 mi NNW 13.8 mph 25.3 mph 0.01 in Rain , Thunderstorm Light Thunderstorms and Rain
3:16 PM 55.4 °F - 37.4 °F 51% 30.28 in 10.0 mi West 9.2 mph - 0.01 in   Overcast
3:53 PM 63.0 °F - 30.9 °F 30% 30.08 in 10.0 mi Calm Calm - 0.01 in   Scattered Clouds
4:20 PM 62.6 °F - 35.6 °F 37% 30.23 in 10.0 mi NE 13.8 mph - N/A   Clear
4:53 PM 64.9 °F - 33.1 °F 31% 30.06 in 10.0 mi ENE 9.2 mph - N/A   Clear
5:53 PM 66.9 °F - 33.1 °F 28% 30.07 in 10.0 mi NE 8.1 mph - N/A   Clear
6:53 PM 63.0 °F - 33.1 °F 33% 30.07 in 10.0 mi ENE 6.9 mph - N/A   Partly Cloudy
7:53 PM 60.1 °F - 36.0 °F 41% 30.09 in 10.0 mi ESE 4.6 mph - N/A   Clear
8:53 PM 57.0 °F - 34.0 °F 42% 30.09 in 10.0 mi SE 10.4 mph - N/A   Clear
9:53 PM 54.0 °F - 35.1 °F 49% 30.12 in 10.0 mi ESE 9.2 mph - N/A   Clear
10:53 PM 48.9 °F - 37.0 °F 64% 30.15 in 10.0 mi NNE 3.5 mph - N/A   Scattered Clouds
11:53 PM 50.0 °F - 37.0 °F 61% 30.12 in 10.0 mi SE 11.5 mph - N/A   Scattered Clouds